Dewpoint
69 69 70 69 70 70 70 70 71 71 71 71 72 73 73 72 72 69 67 63 62 61 59 58 57 58 58 57 55 54 53 51 49 49 50 50 50 52 51 49 50 52 50
69 69 69 69 69 70 70 70 70 70 70 71 71 72 73 72 71 70 67 64 61 60 60 58 58 56 57 56 54 54 51 50 47 46 47 47 49 51 51 49 49 47 50
69 69 69 68 68 68 69 70 69 70 70 70 71 72 72 72 71 70 69 66 62 61 60 59 58 58 57 54 52 50 46 46 47 46 45 46 47 48 48 48 50 50 48
68 68 68 68 68 68 68 69 68 69 69 70 71 72 72 72 72 71 69 67 64 61 61 60 58 58 57 54 51 49 45 46 47 46 46 46 47 48 47 44 45 47 47
67 68 68 69 69 69 69 68 69 69 69 69 70 71 72 72 71 71 70 68 66 62 61 60 58 58 58 54 49 49 48 46 45 46 46 47 46 46 46 45 44 45 48
66 67 68 69 69 69 69 69 69 69 69 70 69 70 70 71 67 66 69 69 66 63 60 59 58 59 59 56 54 50 48 48 48 48 48 48 49 47 47 45 45 45 45
66 67 68 68 68 68 68 69 68 69 70 70 70 70 70 71 65 64 65 69 65 62 59 59 56 55 58 55 57 56 52 52 50 51 51 49 48 48 48 47 47 47 47
67 67 68 68 68 68 69 69 69 70 70 70 70 71 71 71 64 62 63 69 65 63 60 58 58 57 57 55 54 53 49 45 49 52 54 52 50 49 48 48 48 48 48
67 68 68 69 68 69 69 70 70 70 70 70 71 71 71 72 61 61 62 68 65 63 60 59 58 58 56 54 53 52 49 43 44 51 51 51 50 51 50 49 48 44 43
67 68 68 69 69 69 69 70 70 70 70 71 71 72 69 72 59 59 61 67 65 64 61 59 58 57 54 53 53 49 50 43 42 43 44 47 48 48 49 53 48 45 43
67 68 68 69 69 69 70 70 70 70 71 71 71 71 72 71 70 57 57 69 66 64 63 59 59 54 52 50 49 46 45 45 44 45 44 45 46 45 45 47 50 47 44
68 68 68 69 69 69 70 70 70 70 70 70 70 70 71 72 62 56 56 59 63 66 64 63 60 52 50 49 49 44 43 46 44 43 44 44 44 44 45 46 47 47 47
68 68 69 70 70 70 70 70 70 70 70 70 70 69 70 72 68 58 55 56 57 65 65 62 56 50 48 50 48 44 46 46 42 42 43 44 45 45 47 47 47 48 47
67 68 69 69 69 70 70 70 69 70 70 70 69 70 70 68 67 67 65 58 57 59 59 59 55 53 51 51 48 46 46 45 42 43 43 44 45 45 44 44 43 44 42
67 67 68 68 68 69 70 70 69 70 68 69 69 69 70 70 66 64 63 61 61 59 59 57 55 53 52 48 48 46 47 45 44 44 44 44 44 44 43 43 43 43 39
66 66 66 67 67 68 69 69 60 58 56 55 56 65 70 62 55 53 50 50 50 49 57 56 55 52 51 49 47 45 43 42 43 46 46 45 44 43 43 42 42 40 38
66 66 67 65 67 67 68 68 68 62 52 51 48 50 49 59 51 51 49 45 45 49 58 57 56 53 52 50 50 47 42 42 48 46 46 45 44 44 42 41 41 40 38
66 59 66 66 66 67 67 68 67 67 67 68 54 53 48 47 49 48 44 47 48 51 57 54 54 53 54 52 50 46 43 47 45 46 45 45 45 42 42 39 40 40 38
71 68 67 67 68 66 68 68 68 68 69 69 65 53 44 42 42 42 45 61 55 53 56 55 55 53 52 51 50 46 48 46 46 45 44 44 44 42 41 38 40 39 39
67 63 66 71 71 70 69 70 70 71 71 69 68 69 52 52 54 51 52 59 56 55 56 55 52 53 52 50 48 45 47 45 45 44 44 44 43 43 38 38 40 38 37
64 66 63 70 72 72 72 72 71 72 72 69 69 69 52 62 63 57 53 56 57 56 54 51 51 52 50 49 47 46 45 45 44 43 43 43 43 39 39 40 40 37 36
62 63 63 65 67 69 71 72 72 72 71 70 70 64 46 62 64 60 56 57 57 56 54 53 52 51 49 47 47 46 45 44 43 42 42 41 40 38 37 39 37 36 35
56 57 59 61 63 61 66 70 72 71 71 70 69 59 55 59 63 60 57 57 56 54 52 53 51 50 48 47 47 46 44 44 44 43 42 40 38 37 37 37 35 34 34
53 54 56 56 57 59 62 65 69 64 68 70 66 61 59 59 61 58 56 55 54 52 51 52 49 48 47 47 47 46 45 44 45 43 42 38 37 36 36 36 35 35 34
51 51 53 54 54 55 56 58 62 67 68 67 62 59 59 58 58 56 55 54 52 51 50 50 49 48 47 45 46 45 41 36 43 39 38 39 38 40 37 36 36 34 34
48 49 50 51 52 53 54 54 55 57 61 62 61 59 57 58 56 52 52 52 52 51 49 48 48 48 45 45 45 40 34 34 37 35 38 38 38 37 37 36 36 33 34
Lifted_Index
0 0 0 0 -0 -0 -1 -2 -2 -3 -3 -4 -5 -5 -6 -6 -6 -6 -6 -5 -4 -4 -3 -1 3 5 6 6 6 6 6 7 8 9 11 13 13 12 13 13 13 12 11
0 0 0 0 0 -0 -1 -1 -2 -3 -3 -4 -4 -5 -5 -6 -6 -6 -6 -5 -5 -4 -4 -3 0 4 6 6 6 7 7 8 8 9 11 12 12 12 13 13 12 11 11
0 0 1 0 0 0 -0 -1 -1 -2 -3 -3 -3 -4 -5 -6 -6 -6 -6 -6 -5 -5 -4 -4 -2 1 5 7 8 9 9 9 9 10 11 11 12 12 12 12 12 11 11
0 0 1 1 1 0 0 0 -0 -1 -2 -2 -3 -4 -5 -5 -6 -7 -6 -6 -6 -6 -5 -4 -3 -1 3 7 9 10 10 9 9 10 11 11 11 12 12 12 11 11 10
1 1 1 1 1 0 0 0 0 -0 -1 -2 -2 -3 -4 -5 -6 -6 -7 -6 -6 -6 -6 -5 -4 -3 1 6 9 10 10 9 9 9 10 11 11 12 11 11 11 10 10
1 1 1 1 1 1 0 0 -0 -0 -0 -1 -2 -3 -4 -4 -5 -6 -6 -7 -6 -7 -7 -6 -5 -4 -1 3 8 9 10 10 10 10 10 11 12 11 11 10 10 10 10
1 1 1 1 1 1 0 0 -0 -0 -1 -1 -2 -3 -3 -4 -5 -5 -6 -6 -6 -7 -7 -7 -5 -4 -3 -0 4 7 9 10 11 11 10 11 11 11 11 10 11 11 11
1 1 1 1 1 1 0 0 -0 -1 -1 -2 -2 -3 -3 -4 -5 -5 -5 -6 -6 -7 -8 -7 -6 -5 -4 -3 -1 3 7 11 12 12 11 11 11 11 11 11 11 11 11
1 1 1 1 1 1 0 -0 -1 -1 -2 -2 -3 -3 -4 -5 -5 -6 -6 -6 -7 -7 -8 -7 -7 -6 -5 -4 -3 -0 5 10 13 13 12 12 12 11 11 11 11 11 11
1 1 1 1 1 0 -0 -0 -1 -1 -2 -2 -3 -3 -4 -5 -6 -6 -6 -6 -6 -7 -7 -7 -7 -7 -6 -4 -3 -1 4 10 13 14 13 12 12 11 11 11 11 11 11
1 1 1 0 0 -0 -0 -1 -1 -2 -2 -3 -3 -4 -4 -5 -6 -6 -6 -6 -6 -7 -7 -7 -7 -7 -6 -5 -3 -0 5 10 12 13 13 12 12 12 12 12 12 11 11
0 0 0 0 -0 -1 -1 -1 -1 -2 -3 -3 -3 -4 -4 -5 -6 -6 -6 -6 -6 -6 -7 -7 -7 -7 -6 -5 -2 2 6 10 12 13 13 12 12 12 12 12 12 12 12
-0 -0 0 0 -0 -1 -1 -1 -2 -2 -3 -3 -4 -4 -5 -5 -6 -6 -6 -6 -6 -6 -6 -7 -7 -7 -6 -5 -2 2 6 8 11 12 12 12 12 12 12 13 13 13 12
-0 -0 -0 -0 -1 -1 -1 -2 -2 -2 -3 -4 -4 -4 -5 -5 -5 -6 -6 -6 -5 -6 -6 -7 -7 -6 -5 -4 -1 2 4 6 10 12 12 12 12 13 13 13 13 13 13
-1 -1 -0 -1 -1 -1 -2 -2 -2 -3 -3 -4 -4 -5 -5 -5 -5 -5 -6 -6 -6 -6 -6 -6 -6 -5 -4 -4 -2 0 2 5 10 13 13 12 12 13 13 14 14 14 14
-1 -1 -1 -1 -1 -1 -2 -2 -2 -3 -4 -4 -4 -5 -5 -5 -5 -5 -6 -6 -7 -7 -6 -6 -5 -5 -4 -3 -3 -1 2 6 10 13 12 12 12 13 14 14 14 14 14
-2 -2 -2 -2 -2 -2 -2 -2 -3 -3 -4 -4 -4 -5 -5 -5 -6 -6 -7 -7 -8 -8 -7 -6 -5 -5 -4 -3 -3 -1 2 7 11 13 12 12 12 13 14 15 15 15 14
-5 -5 -5 -4 -4 -4 -4 -4 -4 -4 -4 -5 -5 -6 -6 -6 -7 -7 -7 -8 -8 -8 -7 -6 -5 -4 -4 -3 -2 -1 3 8 12 13 12 13 13 14 14 15 15 15 15
-8 -8 -7 -7 -7 -7 -7 -6 -6 -6 -6 -6 -7 -7 -8 -8 -8 -8 -8 -7 -7 -7 -7 -6 -5 -4 -3 -3 -2 0 3 8 12 12 12 13 14 14 15 16 16 16 16
-8 -9 -9 -9 -9 -9 -8 -8 -8 -8 -8 -8 -8 -8 -9 -9 -8 -8 -7 -7 -7 -6 -6 -5 -5 -4 -3 -2 -1 1 4 9 11 11 12 13 14 15 15 16 17 17 17
-7 -7 -8 -9 -9 -9 -9 -9 -9 -9 -9 -8 -8 -8 -8 -8 -8 -8 -7 -6 -6 -6 -5 -5 -4 -3 -2 -1 0 2 5 10 11 11 12 13 14 15 16 17 17 17 17
-4 -5 -6 -6 -7 -8 -8 -8 -8 -8 -8 -8 -8 -8 -8 -8 -7 -7 -7 -6 -6 -5 -5 -4 -3 -2 -0 1 2 4 7 10 11 11 11 13 15 16 17 17 18 18 18
-2 -3 -3 -4 -5 -6 -6 -6 -7 -7 -7 -7 -7 -7 -7 -7 -7 -7 -6 -6 -5 -4 -4 -3 -2 -1 0 2 5 8 10 11 11 11 11 13 15 16 17 18 18 18 18
-1 -1 -2 -2 -3 -4 -4 -5 -5 -6 -6 -6 -6 -6 -7 -7 -7 -6 -6 -5 -4 -3 -3 -2 -1 0 2 4 8 11 11 11 11 11 13 15 16 17 17 18 18 18 19
0 -0 -1 -1 -2 -2 -3 -3 -4 -4 -5 -5 -5 -6 -6 -6 -6 -6 -5 -4 -3 -2 -2 -1 -0 1 3 6 10 12 11 11 11 12 14 16 17 17 17 18 18 19 19
2 1 0 -0 -1 -2 -2 -3 -3 -4 -4 -5 -5 -5 -5 -5 -5 -5 -4 -3 -2 -2 -1 -1 0 2 4 7 11 12 11 11 12 13 15 16 17 17 17 18 18 19 20